This demonstration page uses our WeatherBlox Daily Observations layout. Learn more.

Left ArrowRight Arrow

44.8408, -93.29828

Hourly Observations for July 5, 2021

Temp ( °F °C ) Dew Point ( °F °C ) Humidity (%) Winds ( mph kmh ) Pressure ( in mb ) Visibility ( mi km ) Precip ( " mm )
12:53 am 00:53 Partly Cloudy 83 28.3 68 20 61 61 WSW 12 19 29.78 1009 10 16 0.00 0.00
1:53 am 01:53 Mostly Clear 81 27.2 69 20.6 67 67 SW 9 15 29.78 1009 10 16 0.00 0.00
2:53 am 02:53 Clear 79 26.1 69 20.6 72 72 WSW 10 17 29.78 1009 10 16 0.00 0.00
3:53 am 03:53 Clear 78 25.6 70 21.1 76 76 WSW 7 11 29.79 1009 10 16 0.00 0.00
4:53 am 04:53 Clear 76 24.4 70 21.1 82 82 SW 5 7 29.81 1010 10 16 0.00 0.00
5:53 am 05:53 Sunny 75 23.9 70 21.1 84 84 SW 5 7 29.83 1010 10 16 0.00 0.00
6:53 am 06:53 Mostly Sunny 76 24.4 70 21.1 82 82 W 3 6 29.85 1011 10 16 0.00 0.00
7:53 am 07:53 Mostly Sunny 80 26.7 70 21.1 71 71 W 5 7 29.85 1011 10 16 0.00 0.00
8:53 am 08:53 Mostly Sunny 84 28.9 69 20.6 61 61 W 5 7 29.86 1011 10 16 0.00 0.00
9:53 am 09:53 Mostly Sunny 86 30 69 20.6 57 57 VRB 3 6 29.86 1011 10 16 0.00 0.00
10:53 am 10:53 Mostly Sunny 88 31.1 69 20.6 54 54 WNW 12 19 29.88 1012 10 16 0.00 0.00
11:53 am 11:53 Partly Cloudy 92 33.3 66 18.9 43 43 WNW 7 11 29.87 1012 10 16 0.00 0.00
12:53 pm 12:53 Mostly Sunny 94 34.4 64 17.8 37 37 NW 14 22 29.88 1012 10 16 0.00 0.00
1:53 pm 13:53 Mostly Sunny 94 34.4 63 17.2 36 36 W 12 19 29.88 1012 10 16 0.00 0.00
2:53 pm 14:53 Mostly Sunny 95 35 61 16.1 32 32 NNW 8 13 29.88 1012 10 16 0.00 0.00
3:53 pm 15:53 Mostly Sunny 94 34.4 63 17.2 36 36 NNW 8 13 29.88 1012 10 16 0.00 0.00
4:53 pm 16:53 Mostly Sunny 95 35 63 17.2 35 35 W 10 17 29.87 1012 10 16 0.00 0.00
5:53 pm 17:53 Mostly Sunny 95 35 62 16.7 34 34 W 13 20 29.87 1012 10 16 0.00 0.00
6:53 pm 18:53 Mostly Sunny 92 33.3 59 15 33 33 NW 12 19 29.88 1012 10 16 0.00 0.00
7:53 pm 19:53 Partly Cloudy 90 32.2 60 15.6 37 37 NW 10 17 29.88 1012 10 16 0.00 0.00
8:53 pm 20:53 Partly Cloudy 88 31.1 61 16.1 40 40 VRB 5 7 29.89 1012 10 16 0.00 0.00
9:53 pm 21:53 Partly Cloudy 85 29.4 62 16.7 46 46 NNE 5 7 29.92 1013 10 16 0.00 0.00
10:53 pm 22:53 Partly Cloudy 86 30 62 16.7 45 45 SSE 5 7 29.94 1014 10 16 0.00 0.00
11:53 pm 23:53 Partly Cloudy 85 29.4 62 16.7 46 46 SE 3 6 29.93 1014 10 16 0.00 0.00

Powered by AerisWeather